Location: Unspecified
(43.4680°N, 87.1740°E)
Time: 06:09:48
(UTC+00:00)

SL-16 R/B - Pass Details

Date: 17 January 2020
Orbit: 841 x 848 km, 71.0° (Epoch: 23 February)

Event Time Altitude Azimuth Distance (km) Brightness Sun altitude
Rises 12:11:44 0° 346° (NNW) 3,419 5.3 -12.5°
Reaches altitude 10° 12:15:41 10° 13° (NNE) 2,478 4.4 -13.2°
Enters shadow 12:18:15 13° 40° (NE) 2,244 3.9 -13.6°
